Location: Campestrin
(46.4667°N, 11.7167°E)
Time: 09:42:57
(UTC+00:00)

FALCON 9 DEB - Pass Details

Date: 18 April 2021
Orbit: 422 x 435 km, 53.0° (Epoch: 06 May)

Event Time Altitude Azimuth Distance (km) Brightness Sun altitude
Rises 20:44:50 0° 261° (W) 2,386 7.3 -23.6°
Reaches altitude 10° 20:47:01 10° 268° (W) 1,524 6.3 -23.9°
Enters shadow 20:50:09 41° 334° (NNW) 643 4.4 -24.2°
